Location: Unspecified
(41.5000°N, 0.0000°E)
Time: 06:31:04
(UTC+00:00)

A-11 Canister half - Pass Details

Date: 25 June 2019
Orbit: 1526 x 1683 km, 47.3° (Epoch: 17 July)

Event Time Altitude Azimuth Distance (km) Brightness Sun altitude
Exits shadow 03:43:57 - 233° (SW) 3,940 10.4 -7.3°
Reaches altitude 10° 03:44:28 10° 233° (SW) 3,776 10.4 -7.3°
Maximum altitude 03:53:59 78° 148° (SSE) 1,578 9.1 -5.9°
Drops below altitude 10° 04:03:18 10° 65° (ENE) 3,700 12.8 -4.5°
Sets 04:06:19 0° 64° (ENE) 4,680 13.8 -4.1°
